{"data":{"norad_id":48681,"intl_designator":"2021-044AV","name":"STARLINK-2725","alt_names":[],"object_type":"PAYLOAD","status":"ACTIVE","operator":null,"country":"US","launch_date":"2021-05-26","launch_site_code":"AFETR","launch_vehicle":null,"mission":null,"orbit_class":"UNKNOWN","rcs_meters":null,"size_class":null,"mass_kg":null,"dimensions":null,"purposes":["comms"],"wikipedia_slug":null,"has_3d_model":false,"image_url":null,"decayed_at":null,"tle_current":{"epoch":"2026-05-25T01:26:09.630816Z","epoch_age_seconds":66974,"freshness":"FRESH","line1":"1 48681U 21044AV  26145.05983369  .00001125  00000+0  48011-4 0  9995","line2":"2 48681  53.1601  80.4184 0001492 126.4472 233.6667 15.31703689276058","mean_motion":15.31703689,"eccentricity":0.0001492,"inclination_deg":53.1601,"raan_deg":80.4184,"arg_perigee_deg":126.4472,"mean_anomaly_deg":233.6667,"bstar":4.8011e-5,"rev_number":27605,"period_min":94.012961536975,"perigee_km":469.7071477237,"apogee_km":471.75084933766,"semimajor_km":6848.8659985307,"source":"CELESTRAK","updated_at":"2026-05-25T13:38:16.760706Z"}}}